• In Netherlands
  • List of Countries
  • For 7 days
  • Water Temperature
  • Satellite Maps
  • Weather Map
  • Weather Widgets
  • user-avatar
    Login

    Hourly Weather Tyrgowishte

    Today, 24 September, Monday

    Time Temperature Precipitation Wind Pressure Humidity
    00:00 +19°C° 0 mm 2 mps 746 mmHg 82%
    01:00 +19°C° 0 mm 2 mps 745 mmHg 84%
    02:00 +18°C° 0 mm 2 mps 744 mmHg 87%
    03:00 +18°C° 0 mm 2 mps 744 mmHg 86%
    04:00 +18°C° 0 mm 2 mps 744 mmHg 86%
    05:00 +18°C° 0 mm 3 mps 743 mmHg 86%
    06:00 +20°C° 0 mm 3 mps 743 mmHg 77%
    07:00 +21°C° 0 mm 3 mps 742 mmHg 68%
    08:00 +23°C° 0 mm 4 mps 742 mmHg 59%
    09:00 +26°C° 0 mm 4 mps 742 mmHg 50%
    10:00 +29°C° 0 mm 4 mps 741 mmHg 42%
    11:00 +32°C° 0 mm 5 mps 741 mmHg 33%
    12:00 +33°C° 0 mm 5 mps 741 mmHg 31%
    13:00 +34°C° 0 mm 5 mps 740 mmHg 29%
    14:00 +34°C° 0 mm 5 mps 740 mmHg 27%
    15:00 +33°C° 0 mm 6 mps 740 mmHg 31%
    16:00 +30°C° 0 mm 7 mps 740 mmHg 35%
    17:00 +29°C° 0 mm 8 mps 741 mmHg 39%
    18:00 +24°C° 0 mm 9 mps 742 mmHg 44%
    19:00 +21°C° 0 mm 9 mps 743 mmHg 48%
    20:00 +17°C° 0 mm 9 mps 744 mmHg 53%
    21:00 +16°C° 0.1 mm 9 mps 745 mmHg 56%
    22:00 +15°C° 0.1 mm 8 mps 746 mmHg 58%
    23:00 +14°C° 0.1 mm 7 mps 747 mmHg 61%

    Tomorrow, 25 September, Tuesday

    Time Temperature Precipitation Wind Pressure Humidity
    00:00 +13°C° 0.2 mm 6 mps 747 mmHg 62%
    01:00 +13°C° 0.2 mm 6 mps 748 mmHg 62%
    02:00 +12°C° 0.2 mm 5 mps 748 mmHg 63%
    03:00 +12°C° 0 mm 5 mps 749 mmHg 63%
    04:00 +11°C° 0 mm 4 mps 749 mmHg 62%
    05:00 +11°C° 0 mm 4 mps 749 mmHg 62%
    06:00 +11°C° 0 mm 4 mps 750 mmHg 60%
    07:00 +10°C° 0 mm 5 mps 750 mmHg 58%
    08:00 +10°C° 0 mm 5 mps 751 mmHg 56%
    09:00 +13°C° 0 mm 5 mps 751 mmHg 50%
    10:00 +14°C° 0 mm 5 mps 751 mmHg 44%
    11:00 +16°C° 0 mm 5 mps 751 mmHg 38%
    12:00 +16°C° 0 mm 5 mps 751 mmHg 34%
    13:00 +17°C° 0 mm 5 mps 751 mmHg 31%
    14:00 +19°C° 0 mm 5 mps 751 mmHg 27%
    15:00 +17°C° 0 mm 5 mps 751 mmHg 30%
    16:00 +17°C° 0 mm 5 mps 751 mmHg 33%
    17:00 +16°C° 0 mm 5 mps 751 mmHg 35%
    18:00 +15°C° 0 mm 4 mps 752 mmHg 39%
    19:00 +13°C° 0 mm 3 mps 752 mmHg 43%
    20:00 +13°C° 0 mm 2 mps 753 mmHg 47%
    21:00 +12°C° 0 mm 2 mps 753 mmHg 47%
    22:00 +10°C° 0 mm 2 mps 754 mmHg 48%
    23:00 +10°C° 0 mm 2 mps 754 mmHg 49%

    Day after tomorrow, 26 September, Wednesday

    Time Temperature Precipitation Wind Pressure Humidity
    00:00 +9°C° 0 mm 2 mps 755 mmHg 50%
    01:00 +9°C° 0 mm 2 mps 755 mmHg 51%
    02:00 +8°C° 0 mm 2 mps 755 mmHg 52%
    03:00 +8°C° 0 mm 2 mps 755 mmHg 54%
    04:00 +7°C° 0 mm 2 mps 755 mmHg 57%
    05:00 +7°C° 0 mm 2 mps 756 mmHg 59%
    06:00 +8°C° 0 mm 3 mps 756 mmHg 57%
    07:00 +8°C° 0 mm 4 mps 756 mmHg 54%
    08:00 +9°C° 0 mm 5 mps 757 mmHg 52%
    09:00 +10°C° 0 mm 6 mps 757 mmHg 47%
    10:00 +13°C° 0 mm 6 mps 757 mmHg 41%
    11:00 +14°C° 0 mm 7 mps 757 mmHg 36%
    12:00 +15°C° 0 mm 7 mps 757 mmHg 35%
    13:00 +15°C° 0 mm 7 mps 756 mmHg 33%
    14:00 +15°C° 0 mm 7 mps 756 mmHg 31%
    15:00 +15°C° 0 mm 6 mps 756 mmHg 32%
    16:00 +14°C° 0 mm 6 mps 756 mmHg 33%
    17:00 +14°C° 0 mm 6 mps 756 mmHg 34%
    18:00 +12°C° 0 mm 5 mps 756 mmHg 38%
    19:00 +11°C° 0 mm 4 mps 756 mmHg 41%
    20:00 +9°C° 0 mm 3 mps 756 mmHg 45%
    21:00 +9°C° 0 mm 3 mps 757 mmHg 47%
    22:00 +8°C° 0 mm 2 mps 757 mmHg 50%
    23:00 +7°C° 0 mm 2 mps 757 mmHg 52%

    27 September, Thursday

    Time Temperature Precipitation Wind Pressure Humidity
    00:00 +7°C° 0 mm 2 mps 757 mmHg 54%
    01:00 +6°C° 0 mm 2 mps 757 mmHg 56%
    02:00 +6°C° 0 mm 2 mps 756 mmHg 57%
    03:00 +6°C° 0 mm 1 mps 756 mmHg 58%
    04:00 +6°C° 0 mm 1 mps 756 mmHg 59%
    05:00 +5°C° 0 mm 1 mps 756 mmHg 60%
    06:00 +7°C° 0 mm 1 mps 756 mmHg 55%
    07:00 +7°C° 0 mm 2 mps 756 mmHg 50%
    08:00 +9°C° 0 mm 2 mps 756 mmHg 45%
    09:00 +10°C° 0 mm 2 mps 756 mmHg 40%
    10:00 +12°C° 0 mm 3 mps 756 mmHg 35%
    11:00 +14°C° 0 mm 4 mps 755 mmHg 31%
    12:00 +15°C° 0 mm 4 mps 755 mmHg 28%
    13:00 +17°C° 0 mm 4 mps 754 mmHg 26%
    14:00 +18°C° 0 mm 4 mps 753 mmHg 23%
    15:00 +18°C° 0 mm 3 mps 753 mmHg 24%
    16:00 +18°C° 0 mm 3 mps 753 mmHg 25%
    17:00 +17°C° 0 mm 3 mps 752 mmHg 26%
    18:00 +15°C° 0 mm 2 mps 752 mmHg 30%
    19:00 +13°C° 0 mm 1 mps 752 mmHg 34%
    20:00 +11°C° 0 mm 1 mps 752 mmHg 38%
    21:00 +11°C° 0 mm 1 mps 752 mmHg 39%
    22:00 +9°C° 0 mm 0 mps 752 mmHg 40%
    23:00 +9°C° 0 mm 0 mps 752 mmHg 42%

    28 September, Friday

    Time Temperature Precipitation Wind Pressure Humidity
    00:00 +9°C° 0 mm 0 mps 752 mmHg 42%
    01:00 +9°C° 0 mm 0 mps 751 mmHg 43%
    02:00 +8°C° 0 mm 0 mps 751 mmHg 43%
    03:00 +9°C° 0 mm 1 mps 751 mmHg 43%
    04:00 +9°C° 0 mm 1 mps 751 mmHg 43%
    05:00 +9°C° 0 mm 1 mps 750 mmHg 44%
    06:00 +10°C° 0 mm 1 mps 750 mmHg 41%
    07:00 +12°C° 0 mm 1 mps 750 mmHg 38%
    08:00 +14°C° 0 mm 1 mps 750 mmHg 35%
    09:00 +16°C° 0 mm 1 mps 750 mmHg 33%
    10:00 +18°C° 0 mm 2 mps 750 mmHg 31%
    11:00 +20°C° 0 mm 2 mps 750 mmHg 29%
    12:00 +21°C° 0 mm 3 mps 749 mmHg 29%
    13:00 +22°C° 0 mm 3 mps 749 mmHg 29%
    14:00 +24°C° 0 mm 3 mps 748 mmHg 29%
    15:00 +22°C° 0 mm 3 mps 748 mmHg 32%
    16:00 +23°C° 0 mm 2 mps 747 mmHg 35%
    17:00 +21°C° 0 mm 2 mps 747 mmHg 38%
    18:00 +19°C° 0 mm 2 mps 747 mmHg 46%
    19:00 +17°C° 0 mm 2 mps 747 mmHg 54%
    20:00 +15°C° 0 mm 2 mps 746 mmHg 63%
    21:00 +14°C° 0 mm 2 mps 746 mmHg 67%
    22:00 +13°C° 0 mm 2 mps 746 mmHg 71%
    23:00 +13°C° 0 mm 1 mps 746 mmHg 76%

    29 September, Saturday

    Time Temperature Precipitation Wind Pressure Humidity
    00:00 +13°C° 0 mm 1 mps 745 mmHg 77%
    01:00 +12°C° 0 mm 1 mps 745 mmHg 78%
    02:00 +12°C° 0 mm 1 mps 745 mmHg 80%
    03:00 +12°C° 0 mm 1 mps 744 mmHg 80%
    04:00 +12°C° 0 mm 1 mps 744 mmHg 81%
    05:00 +12°C° 0 mm 1 mps 744 mmHg 81%
    06:00 +13°C° 0 mm 1 mps 744 mmHg 75%
    07:00 +14°C° 0 mm 1 mps 744 mmHg 69%
    08:00 +16°C° 0 mm 1 mps 744 mmHg 63%
    09:00 +19°C° 0 mm 1 mps 744 mmHg 54%
    10:00 +20°C° 0 mm 2 mps 744 mmHg 46%
    11:00 +23°C° 0 mm 2 mps 744 mmHg 37%
    12:00 +24°C° 0 mm 2 mps 743 mmHg 34%
    13:00 +25°C° 0 mm 2 mps 743 mmHg 32%
    14:00 +26°C° 0 mm 2 mps 742 mmHg 29%
    15:00 +25°C° 0 mm 1 mps 742 mmHg 31%
    16:00 +24°C° 0 mm 1 mps 742 mmHg 33%
    17:00 +24°C° 0 mm 1 mps 742 mmHg 35%
    18:00 +22°C° 0 mm 1 mps 742 mmHg 39%
    19:00 +20°C° 0 mm 1 mps 742 mmHg 43%
    20:00 +19°C° 0 mm 1 mps 742 mmHg 46%
    21:00 +18°C° 0 mm 1 mps 742 mmHg 49%
    22:00 +18°C° 0 mm 1 mps 743 mmHg 51%
    23:00 +16°C° 0 mm 1 mps 743 mmHg 53%
    Show more